Wind_Speed
19 13 14 16 16 19 20 20 20 17 15 15 15 16 15 13 14 14 15 18 19 15 15 14 13 12 12 10 9 13 13 11 14 16 17 17 19 18 18 16 14 13 12 12 14 14 13 14 13 12 12 13 13 12 11 11 11 10 10 10 11 11 11 9 8 10 11 12 11 11 10 9 8 7 7 7 6 6 4 4 4 3 3 2 1 1
19 14 16 20 18 19 20 20 21 19 14 13 14 15 14 13 11 11 12 16 18 14 12 14 13 12 12 10 10 12 11 9 15 17 16 15 16 17 19 17 15 13 12 12 13 14 14 15 15 11 10 13 13 11 10 11 11 9 9 10 11 11 10 8 7 8 9 11 10 10 9 8 7 7 7 7 6 4 2 2 3 3 2 2 1 1
16 15 19 21 18 18 19 20 22 20 14 11 12 13 13 13 10 11 12 16 16 11 9 14 12 11 11 8 8 12 12 10 13 14 13 14 15 16 18 17 17 16 15 15 16 17 16 17 18 12 9 13 14 12 12 12 10 10 11 11 11 10 10 10 9 9 9 10 10 10 9 7 7 7 6 5 4 2 1 2 2 2 1 2 2 3
14 15 19 20 18 20 20 20 21 16 11 11 11 11 13 14 12 10 12 16 15 9 9 12 10 9 9 7 8 13 13 11 12 13 13 15 16 17 17 16 18 17 18 18 17 19 20 20 20 16 12 14 16 15 15 14 12 11 12 12 11 9 9 10 8 7 8 9 9 8 6 5 5 6 5 4 4 3 3 2 2 1 1 2 3 2
14 15 19 19 20 22 19 20 21 12 9 13 12 12 13 13 13 10 12 16 14 10 11 13 8 7 9 9 10 11 10 9 11 14 15 15 16 17 17 17 18 18 19 21 19 19 22 22 21 19 18 17 16 16 16 14 13 12 12 12 12 10 8 8 7 7 8 7 6 6 6 5 5 6 6 5 3 3 2 0 1 0 1 2 2 3
14 17 21 21 20 21 18 18 20 13 9 12 13 15 12 14 15 13 15 15 12 10 14 14 8 5 8 9 9 9 9 10 12 16 16 15 16 18 18 18 19 19 18 20 21 20 22 24 23 22 23 20 16 15 14 13 13 12 13 14 13 12 10 10 9 8 7 7 6 7 7 7 7 6 5 4 2 1 1 1 3 2 2 3 2 4
12 18 21 21 20 21 19 17 18 16 10 9 13 14 11 15 18 17 19 16 10 10 14 15 10 5 7 9 10 10 11 13 13 13 15 17 17 17 18 18 19 18 17 18 19 19 21 24 26 25 24 21 18 17 16 15 14 12 12 13 13 11 9 9 8 7 7 7 7 6 6 6 6 4 3 3 3 2 1 0 2 2 2 1 2 4
13 20 22 22 22 19 16 14 17 19 12 7 13 11 10 13 17 17 18 14 10 10 12 15 14 6 7 10 12 13 13 15 14 12 14 16 18 18 17 18 18 17 17 17 17 18 18 20 23 25 23 21 20 20 19 19 18 14 11 12 12 10 9 8 7 7 6 6 5 4 5 5 5 4 3 4 3 2 2 2 1 1 3 3 3 3
16 21 22 22 20 14 13 14 18 20 14 8 15 13 8 10 14 15 15 12 11 11 10 14 16 10 7 10 12 13 13 14 15 16 16 17 19 19 18 18 17 17 17 16 16 16 16 17 20 23 22 20 20 20 19 18 18 15 11 10 11 10 8 7 5 5 5 5 4 3 3 4 4 4 4 3 3 3 2 2 1 2 2 3 2 3
15 17 18 17 14 12 14 16 17 20 15 8 15 14 9 9 12 14 13 11 11 11 10 14 17 11 6 10 13 11 12 14 13 14 15 17 20 20 19 18 17 17 16 16 16 16 15 16 20 22 21 19 18 17 16 16 15 14 13 11 10 9 8 7 6 5 5 5 5 5 4 4 4 4 4 4 3 3 3 3 4 4 2 3 6 7
12 13 16 15 14 14 16 15 15 19 16 8 13 13 10 10 11 10 9 9 10 10 12 16 18 14 9 9 12 10 10 13 12 12 14 18 21 20 20 19 17 17 17 17 18 17 16 17 20 23 22 20 19 17 15 15 13 13 12 11 9 8 8 8 7 6 6 5 5 6 6 5 4 5 4 5 5 4 5 5 5 5 5 6 9 10
14 13 13 15 19 18 16 15 15 19 16 9 10 12 10 9 8 8 9 9 10 10 12 16 18 17 12 7 11 11 12 15 15 14 14 18 22 21 20 20 19 18 19 20 19 17 17 18 19 22 23 21 19 18 16 16 14 12 11 8 7 9 9 8 8 7 6 5 6 6 6 6 5 5 5 6 7 6 6 6 6 6 5 7 11 11
15 14 13 15 21 19 16 14 13 16 15 10 11 12 11 9 8 9 10 9 10 9 11 16 17 14 11 8 14 18 19 19 18 17 18 20 22 22 21 21 21 21 21 20 18 18 18 18 19 21 22 21 19 17 17 16 13 11 10 8 7 9 8 8 8 7 6 6 6 6 5 6 6 6 7 7 7 8 8 8 7 6 7 10 11 11
11 12 17 17 15 18 18 13 11 13 14 12 12 12 11 10 9 10 10 9 9 8 10 15 15 11 9 8 14 19 20 20 20 20 22 23 21 22 23 22 21 22 21 18 18 19 18 17 18 19 19 20 20 17 16 15 12 11 10 8 8 8 8 8 8 7 6 5 5 6 6 6 6 7 8 8 8 8 8 8 7 8 11 12 12 11
11 10 17 17 13 17 19 13 12 14 14 12 12 11 10 9 8 8 9 9 10 9 9 12 12 10 7 4 8 14 17 20 22 21 22 24 22 21 22 21 21 22 21 19 19 20 19 17 17 17 17 19 19 18 16 14 12 10 10 9 8 8 8 7 7 7 6 5 4 5 6 7 7 7 7 8 8 7 8 9 10 12 12 12 12 13
13 10 15 17 14 17 16 14 16 15 13 11 11 11 10 10 8 7 6 5 6 9 8 8 6 3 2 1 3 9 15 18 20 20 21 24 25 24 23 22 21 23 23 22 21 20 19 18 17 17 18 19 19 18 17 13 11 10 10 9 8 8 8 7 6 6 5 5 5 6 7 7 7 7 7 8 8 9 10 12 12 13 13 13 13 13
12 9 16 18 14 18 19 15 15 14 10 9 11 12 10 11 10 7 5 2 3 8 8 8 6 5 4 2 5 10 14 16 18 20 21 24 27 26 24 23 23 23 23 22 20 19 20 19 17 17 18 18 17 16 15 13 11 10 10 9 8 8 7 6 6 5 4 4 5 7 7 7 8 9 9 9 10 12 14 14 14 14 14 14 13 13
11 9 16 19 15 19 22 17 14 14 12 8 10 11 9 11 11 6 6 5 6 9 7 9 11 9 8 6 8 13 15 16 18 19 22 24 26 25 22 23 24 24 23 21 20 19 19 19 18 18 18 17 16 15 15 13 11 10 9 9 8 7 6 6 6 5 4 5 6 7 8 9 9 9 10 12 13 15 16 15 15 14 14 14 14 14
12 8 13 18 15 16 20 17 12 15 17 12 10 10 9 10 10 8 7 7 9 9 7 11 13 11 9 8 12 15 16 17 18 18 20 23 24 24 23 23 25 25 24 21 21 20 20 20 20 19 19 18 16 15 14 13 12 11 10 9 9 8 8 7 6 6 6 6 6 7 9 9 9 10 13 16 16 16 16 15 15 14 14 15 14 14
11 8 9 14 15 15 15 13 10 12 16 14 11 12 10 8 8 9 7 6 9 8 7 11 11 9 9 10 16 18 17 17 19 18 18 22 25 25 24 25 27 28 25 23 23 21 21 22 21 20 20 19 17 15 14 13 13 12 11 10 9 9 9 8 7 8 8 8 8 9 10 10 11 14 18 18 17 16 16 15 15 14 15 15 15 15
8 8 8 12 15 15 12 12 12 12 13 11 9 11 10 7 7 8 7 7 8 8 7 8 9 8 7 9 15 18 18 18 19 18 18 22 25 24 24 26 28 29 26 25 24 22 23 23 22 21 20 19 17 15 15 14 14 13 11 10 10 10 10 9 9 9 9 9 10 11 13 14 16 18 18 17 17 16 16 16 15 15 15 15 16 16
7 7 9 10 13 13 11 14 15 15 15 11 7 9 10 9 8 8 9 9 8 8 8 7 8 7 5 8 11 14 15 16 19 19 19 23 26 25 26 28 28 29 27 26 25 24 25 25 24 22 21 19 17 16 16 15 14 13 11 11 11 9 9 10 9 10 10 11 11 13 17 18 19 19 17 17 17 16 16 16 16 16 15 15 16 17
3 3 10 10 10 12 13 16 17 17 17 14 10 11 10 10 10 8 9 10 8 9 9 7 7 4 1 7 11 12 13 16 19 20 19 24 26 25 27 28 27 28 27 26 26 26 26 26 24 23 21 19 17 17 17 16 14 14 12 11 11 10 10 11 11 12 12 13 14 16 19 19 19 18 18 17 17 16 16 16 16 16 17 16 16 17
1 2 9 10 9 10 12 15 16 17 15 13 12 13 10 10 11 9 7 7 7 9 9 7 7 3 2 4 8 12 17 19 20 21 21 22 25 25 26 28 28 27 28 27 27 26 25 25 25 23 21 20 18 17 17 16 14 13 12 11 13 14 13 12 13 14 14 15 18 19 19 19 18 18 18 17 17 16 16 16 17 17 17 17 16 16
5 7 9 10 10 11 12 13 14 15 13 10 12 14 13 13 14 11 9 6 7 10 11 9 6 5 4 3 4 10 15 16 17 21 21 21 26 27 26 28 29 28 28 28 27 27 27 26 25 24 22 21 19 18 17 16 15 14 13 14 15 16 16 15 14 15 16 18 20 20 19 19 18 18 17 17 16 16 17 17 18 17 16 16 16 17
9 8 8 10 10 11 11 10 10 12 11 8 11 16 17 17 16 12 9 7 8 10 11 11 6 6 7 7 8 9 12 14 16 20 21 22 27 28 27 31 32 31 30 30 30 29 28 27 25 24 23 21 20 19 18 17 16 15 15 16 15 16 18 17 16 17 19 20 20 20 19 19 18 18 17 17 17 17 17 18 17 16 16 16 16 17
7 8 10 10 10 10 10 10 10 11 12 10 12 16 18 18 17 12 8 8 8 8 9 10 7 8 9 11 13 12 12 13 15 17 19 23 27 28 29 31 32 31 32 32 31 30 28 27 26 24 23 22 21 20 19 18 17 16 16 17 17 17 18 18 18 19 20 20 20 19 19 19 18 18 17 17 17 18 18 18 17 16 16 16 16 16
5 8 11 11 10 8 7 12 16 15 15 16 15 14 15 18 18 13 10 10 8 7 9 10 11 10 9 11 14 15 13 12 14 18 20 25 28 28 29 31 30 31 33 33 30 28 28 28 27 25 24 23 22 21 19 18 17 17 17 18 18 19 19 19 19 20 20 20 20 19 19 19 18 17 17 18 18 18 18 17 16 16 16 16 17 17
4 8 11 11 9 5 2 6 14 16 15 16 16 15 14 16 17 15 13 11 10 9 8 8 12 13 10 11 12 15 16 16 18 21 21 23 26 27 29 31 30 32 33 31 28 28 29 29 28 27 25 24 23 22 20 19 18 17 17 18 19 19 20 20 20 20 19 20 20 19 19 19 18 18 18 18 18 17 17 17 17 16 16 17 17 17
6 6 10 12 9 6 1 1 6 12 13 14 17 17 16 15 16 15 14 13 12 10 9 7 9 11 10 10 12 15 17 17 20 23 22 24 28 29 30 31 30 30 30 29 28 29 29 29 29 28 26 25 24 23 21 19 19 19 18 18 19 20 20 21 21 20 19 19 19 19 19 19 18 17 17 17 17 17 17 17 17 17 17 17 17 17
6 4 9 10 8 8 6 3 5 9 9 11 13 15 16 17 16 15 14 13 12 11 11 8 7 8 7 8 12 16 17 18 21 24 24 26 30 32 32 31 30 30 30 29 29 29 30 29 28 28 28 27 25 23 21 20 20 20 20 20 20 21 21 21 21 20 19 19 19 18 17 17 17 16 16 17 17 16 16 17 17 17 17 17 17 17
7 4 7 8 8 9 10 8 9 7 6 9 11 12 15 15 14 14 13 13 13 12 13 11 8 7 6 6 9 14 18 19 21 23 24 26 30 33 33 33 33 33 32 31 31 31 31 30 30 30 29 27 25 23 22 21 22 22 22 21 21 21 21 21 21 20 19 19 18 17 17 17 17 16 16 16 16 16 16 16 17 17 17 18 17 18
8 6 6 7 7 8 11 12 10 7 7 8 8 10 13 12 12 13 13 14 14 13 12 10 9 7 7 8 8 11 15 17 20 24 26 28 31 31 31 31 32 33 33 32 33 32 31 31 32 31 29 28 26 24 23 23 24 24 23 22 22 22 22 21 21 20 19 19 18 18 18 17 17 16 16 16 16 16 16 15 15 15 16 17 18 18
10 7 6 7 6 7 10 10 9 9 8 4 2 4 9 11 12 12 12 14 15 14 11 9 10 10 9 10 10 12 15 18 20 23 25 27 29 29 29 31 32 33 33 33 33 34 33 32 32 31 29 28 26 24 24 24 25 25 24 23 22 22 22 21 21 20 20 19 19 19 18 17 16 16 16 15 15 15 14 14 13 13 14 15 16 17
10 8 5 6 6 7 8 8 9 9 5 2 3 2 1 6 10 11 12 13 14 14 14 12 12 13 11 11 13 16 18 18 18 20 23 25 28 29 30 32 33 34 34 35 36 35 34 33 33 32 30 28 27 27 26 25 25 26 25 23 22 22 22 22 21 20 20 20 19 18 17 16 16 15 14 14 14 13 13 13 12 11 11 12 13 15
9 7 6 5 6 7 7 8 8 5 4 3 2 3 2 3 7 9 11 12 13 14 14 14 13 12 12 13 15 15 15 15 15 17 22 24 25 28 31 33 34 35 36 37 37 36 34 34 35 34 31 30 30 30 28 27 27 26 24 23 23 23 22 22 22 21 21 20 19 17 17 16 16 15 14 14 14 13 13 12 11 10 10 10 12 13
9 8 6 5 6 7 7 8 6 3 4 4 3 4 5 5 8 10 9 11 14 15 15 15 14 14 13 12 11 11 14 14 11 13 20 23 24 27 30 32 33 34 34 35 35 34 33 34 34 33 33 33 32 30 29 28 27 26 25 24 23 23 23 22 21 21 20 19 18 17 17 16 16 15 14 14 13 12 12 11 10 9 9 9 9 10
9 9 7 6 5 5 6 7 8 6 6 7 7 8 8 5 6 9 8 8 12 16 18 17 16 16 13 10 11 15 15 10 7 11 20 25 25 26 28 30 33 34 34 35 35 34 34 34 34 35 36 34 31 29 28 28 27 26 25 24 24 24 23 22 21 20 19 18 18 18 17 16 16 15 14 13 13 12 11 10 9 9 8 8 8 9
9 8 8 7 6 6 7 7 7 7 6 5 6 9 9 6 5 6 7 7 10 18 22 20 17 16 14 14 17 16 12 8 7 11 23 27 25 26 29 31 33 33 33 36 37 36 35 35 35 36 35 32 30 29 28 27 26 26 25 24 24 23 22 21 21 20 19 19 19 18 17 16 16 15 14 14 13 12 10 9 8 8 7 7 7 7
8 7 7 8 8 8 8 7 6 5 2 5 9 9 9 8 7 6 5 4 4 12 20 20 17 16 17 19 19 14 10 7 5 9 24 29 26 26 29 31 34 34 34 36 37 35 34 35 37 38 35 32 30 28 27 26 25 25 25 24 24 23 22 22 21 20 20 19 19 18 17 17 16 15 14 14 13 11 10 9 8 8 7 7 7 6
8 6 7 8 8 8 9 8 7 3 3 6 10 11 11 9 6 5 4 1 2 3 12 17 18 18 20 21 18 13 8 2 4 12 27 30 27 27 29 30 33 34 34 35 35 33 33 36 40 40 36 32 30 28 27 26 25 25 25 24 23 23 22 22 21 21 20 20 19 19 18 17 17 16 14 14 13 11 9 9 9 8 8 7 7 7
8 6 7 7 8 8 7 7 8 5 2 4 9 13 11 8 4 2 2 2 3 2 6 12 15 18 20 20 17 11 5 6 9 18 27 28 28 29 29 30 32 30 31 35 35 33 34 38 41 39 35 32 30 28 27 25 24 25 25 24 23 23 23 22 22 22 21 20 20 19 18 17 17 16 15 13 12 11 9 9 9 8 7 7 6 6
6 7 8 7 7 7 7 7 8 4 3 8 11 10 7 5 0 3 1 2 1 0 4 8 10 14 17 17 13 8 8 10 13 19 24 26 28 29 31 33 33 31 33 36 36 36 39 42 41 37 33 32 29 27 26 25 25 25 25 24 24 24 23 23 23 22 21 20 20 19 18 18 18 16 15 13 12 10 9 8 8 7 6 5 4 4
3 5 6 6 6 7 6 6 3 1 4 9 7 3 1 2 5 5 2 1 2 2 3 6 8 11 14 15 12 10 10 12 15 19 23 26 27 29 32 33 34 35 37 36 35 39 44 44 40 36 33 31 29 26 25 25 26 26 25 25 25 24 24 24 23 22 22 20 20 19 18 18 18 16 14 13 11 10 9 8 7 6 5 4 3 3
1 3 3 2 3 4 3 1 3 3 4 6 2 4 5 6 6 5 4 3 2 2 2 5 7 10 13 15 13 11 11 13 15 20 23 24 26 29 32 33 35 37 37 35 36 41 44 43 40 37 33 30 27 26 25 25 26 27 26 26 26 25 25 24 23 23 22 20 20 19 18 17 16 14 14 13 11 9 8 7 7 5 4 4 4 3
3 2 3 2 2 4 3 2 0 1 4 5 2 4 5 4 5 4 3 4 3 2 1 3 7 11 13 15 14 12 12 14 17 20 22 23 26 29 31 33 35 36 35 36 41 43 43 42 40 37 33 30 27 26 25 25 26 27 27 26 26 26 25 25 23 22 21 20 19 19 18 17 15 14 13 12 10 9 8 6 6 5 4 4 3 3
4 3 3 4 4 3 2 2 2 1 2 3 3 3 3 2 3 5 4 4 4 2 1 2 6 11 13 14 14 12 12 15 17 19 22 25 28 30 32 33 35 35 36 40 44 45 43 41 39 36 34 31 28 26 26 26 26 27 27 26 26 26 25 24 23 22 21 20 19 19 18 16 15 14 13 11 10 9 8 7 6 5 5 4 3 2
3 2 4 6 5 5 4 2 3 3 3 3 5 4 3 4 5 3 4 4 4 3 2 3 6 10 12 13 14 13 14 16 16 19 23 26 28 30 32 33 34 34 36 41 46 46 44 41 38 37 35 32 29 27 26 27 26 26 27 27 26 26 25 24 23 22 21 20 19 18 17 16 16 14 12 11 10 9 7 7 6 5 5 5 5 4
3 3 3 3 5 6 6 3 3 4 4 3 4 4 2 4 5 4 2 3 3 4 5 5 6 9 10 12 14 14 16 17 17 19 23 25 27 29 31 32 33 33 37 43 46 43 41 39 39 38 35 32 29 28 27 27 27 27 27 27 26 26 25 24 23 22 21 20 19 18 17 16 16 14 12 11 11 9 9 10 9 7 6 7 7 8
6 5 3 3 5 5 2 1 1 2 2 1 1 2 3 3 3 3 3 2 2 3 5 6 7 8 9 11 14 15 16 17 17 19 22 24 26 29 31 31 32 33 37 42 41 38 37 38 38 37 34 32 30 29 28 28 27 27 27 27 26 25 25 25 23 22 21 20 18 18 17 16 15 14 12 12 12 10 11 14 14 10 7 5 6 6
2 3 3 3 3 2 2 3 3 2 1 1 2 1 2 3 3 3 3 2 2 3 4 6 8 9 10 12 13 14 16 16 16 18 21 23 26 28 29 31 33 34 37 39 38 36 36 37 38 37 34 32 30 29 29 29 28 28 28 27 26 25 25 25 23 21 21 19 18 18 17 15 15 14 12 12 12 10 10 13 13 10 6 4 4 5
Wind_Direction
190 194 202 206 205 203 204 206 216 220 213 206 194 205 215 203 207 195 170 175 183 198 204 178 141 139 148 151 168 172 174 174 166 194 208 176 159 155 149 142 131 126 127 135 149 146 128 128 151 175 165 158 159 165 180 182 178 179 181 173 162 161 165 175 186 166 149 146 138 132 137 139 140 146 149 147 147 148 138 109 104 107 102 91 89 62
193 206 208 205 207 203 203 207 213 221 226 218 201 201 213 211 196 167 154 169 184 204 197 166 148 146 155 168 183 183 187 187 177 194 202 172 159 158 148 134 122 120 125 128 131 138 136 137 154 167 158 157 160 161 166 168 171 171 171 167 160 158 160 168 187 178 153 143 141 138 138 138 139 144 147 146 142 143 147 114 119 126 119 134 155 157
199 213 206 200 206 205 202 206 211 218 223 227 213 199 209 211 177 150 162 175 188 207 183 162 159 150 155 170 183 188 193 191 183 192 195 177 167 158 145 135 130 127 128 126 120 127 137 148 154 146 130 149 159 158 157 161 161 158 162 161 157 162 168 171 177 175 154 140 144 141 134 144 151 153 153 151 149 144 92 85 98 102 104 158 170 179
200 207 202 196 202 207 202 201 208 211 210 226 217 197 210 201 170 159 174 183 193 197 170 164 156 143 156 176 189 194 189 178 183 195 192 179 168 153 143 141 141 135 131 133 129 123 125 138 148 147 147 153 155 151 149 158 161 161 164 156 152 161 175 178 169 157 147 140 143 140 134 149 158 160 162 156 145 125 105 102 111 138 167 185 185 205
202 197 197 196 200 206 201 197 204 201 195 221 219 208 210 181 168 172 171 185 193 183 175 170 152 148 169 179 180 180 179 175 186 192 185 176 166 156 151 149 145 141 138 140 140 133 130 134 139 148 160 161 158 151 144 150 158 157 155 150 148 148 153 157 142 127 126 122 120 117 115 115 114 123 128 124 115 101 116 224 307 50 321 285 282 301
204 193 193 198 198 201 200 196 200 195 190 212 219 223 207 166 178 188 170 180 191 186 183 176 175 176 173 184 176 163 172 182 186 187 183 176 168 164 161 153 146 143 141 142 142 139 139 141 141 147 155 159 163 161 151 147 150 148 146 148 149 144 139 137 130 121 117 106 92 85 89 100 106 116 122 125 126 124 141 322 318 319 351 346 324 305
204 191 191 199 194 196 203 196 191 191 199 205 203 229 227 180 192 193 175 183 195 186 183 189 205 178 163 198 194 179 184 183 183 188 188 181 172 167 161 154 150 145 140 139 139 138 139 142 146 150 154 158 162 165 161 150 147 147 142 144 146 142 130 123 115 108 105 102 99 97 93 95 103 120 146 159 175 219 215 6 309 301 315 294 256 270
197 191 191 196 193 196 202 193 185 191 213 207 175 210 248 198 191 185 179 192 199 180 180 203 222 202 168 196 195 190 193 187 185 189 191 185 175 167 158 154 153 149 144 141 140 142 142 142 147 151 153 157 163 167 164 156 154 154 145 142 145 137 121 113 108 102 99 99 107 118 113 107 119 146 167 165 160 168 175 198 230 5 326 290 273 291
195 199 190 189 190 192 196 191 186 193 218 211 164 184 228 193 181 180 184 200 201 191 190 203 219 223 184 180 187 192 195 192 187 187 190 186 177 168 159 156 153 150 148 147 148 149 148 144 145 150 150 153 163 166 165 164 159 154 151 145 139 129 114 103 97 83 68 82 107 116 117 118 130 142 144 138 130 124 147 222 164 83 2 341 29 43
191 193 180 181 188 189 195 194 183 191 215 194 159 178 199 184 185 190 197 208 201 203 209 202 209 224 200 172 181 189 197 198 189 187 188 181 176 170 162 159 153 151 150 151 153 151 149 144 144 152 154 153 157 158 163 166 154 147 151 143 125 114 104 89 77 53 41 73 110 109 113 122 117 118 123 120 111 96 93 80 80 92 65 47 72 72
159 165 175 189 201 195 196 195 182 192 204 169 160 183 189 190 199 201 210 214 207 211 213 206 206 218 218 182 175 181 198 199 190 189 185 178 177 172 167 162 155 153 150 148 148 145 144 139 141 153 155 155 155 151 157 162 153 151 151 140 121 106 100 93 84 69 55 69 93 94 105 120 114 110 113 111 102 86 85 86 82 82 76 78 84 79
153 174 186 197 205 200 194 189 182 193 195 167 177 191 183 190 199 202 212 212 216 218 211 209 209 216 226 196 171 178 195 202 199 191 183 180 177 169 167 164 157 155 150 148 149 146 144 137 139 150 152 154 155 151 158 162 158 156 148 141 127 100 92 94 87 80 71 71 79 83 91 100 102 105 107 106 105 101 98 97 94 89 80 83 85 82
172 189 186 191 202 199 192 183 177 191 191 176 188 191 181 187 189 199 207 206 217 219 209 209 207 215 231 200 177 183 193 202 200 188 184 182 172 165 166 162 156 154 150 149 151 149 148 141 140 145 146 152 156 153 157 157 157 163 157 146 124 97 90 91 86 82 78 74 77 81 88 93 98 105 108 106 105 105 103 100 98 99 95 91 87 83
175 187 185 189 194 197 200 187 172 188 189 183 192 189 185 187 185 197 201 201 216 215 211 211 202 210 233 199 180 183 187 195 192 182 180 176 166 164 165 158 154 157 154 152 154 152 149 144 141 143 147 157 159 154 154 155 162 166 149 124 104 95 91 85 83 82 78 72 73 82 90 92 97 103 103 104 102 100 102 104 103 103 101 95 88 81
179 185 186 188 181 192 203 191 180 189 186 189 200 198 199 199 188 196 200 199 208 205 209 215 202 203 221 186 164 173 176 186 186 175 171 169 165 164 161 156 158 164 163 159 157 154 150 145 142 143 147 154 155 152 154 155 152 141 123 109 101 96 90 84 82 80 77 75 78 88 97 97 99 101 101 103 104 102 104 109 110 107 103 95 88 83
191 186 180 183 178 184 196 193 190 192 186 190 206 210 210 205 188 190 216 227 216 205 201 206 191 162 200 88 140 175 176 177 171 161 162 165 165 164 159 159 163 166 166 161 155 153 150 145 141 142 145 147 151 153 153 148 136 123 114 110 105 95 89 87 84 81 82 85 86 94 101 102 104 110 113 111 112 113 110 110 110 106 102 96 90 84
194 175 163 171 179 184 193 200 196 194 188 183 205 215 207 209 204 189 209 258 233 216 195 190 188 137 140 188 188 189 181 168 161 160 163 160 159 162 161 162 166 165 164 159 152 150 148 143 141 142 145 146 147 147 142 136 130 122 114 111 107 100 96 91 88 90 92 98 104 106 107 111 121 132 130 118 115 115 112 110 108 103 100 96 90 86
193 159 155 172 184 184 192 206 202 199 204 191 198 206 197 215 225 203 197 194 205 219 190 189 206 187 177 186 182 191 185 168 162 164 165 159 159 163 162 165 169 166 162 156 150 149 146 143 143 142 143 142 139 137 132 129 126 122 118 118 115 109 104 98 99 104 104 106 109 108 109 111 115 124 122 116 116 115 113 111 107 103 100 95 90 87
193 163 160 181 183 174 187 206 204 199 214 215 198 198 198 211 214 198 201 197 200 216 196 196 211 209 202 177 168 188 188 172 167 165 166 167 169 170 166 169 172 167 161 155 150 150 147 145 144 142 141 140 138 135 131 127 125 125 126 125 121 117 114 110 109 109 105 106 105 103 108 106 100 105 114 118 118 116 112 109 105 102 99 95 91 89
196 171 163 181 177 168 181 203 200 188 209 221 207 202 209 212 212 205 200 197 202 210 205 202 207 216 215 176 168 186 187 178 176 172 172 173 173 174 171 171 171 167 161 156 152 151 149 148 147 144 143 142 141 137 132 130 130 130 130 126 123 121 116 111 110 110 106 107 109 107 104 102 105 114 119 120 116 114 111 106 104 102 98 96 93 90
190 168 173 180 176 177 183 196 200 185 192 211 209 203 200 193 211 216 202 205 211 204 201 205 208 218 211 170 170 185 186 184 183 177 177 175 173 174 171 167 167 166 161 155 153 151 150 150 147 146 146 144 143 139 136 136 135 134 132 127 126 122 116 113 111 110 109 109 110 107 106 110 116 120 120 117 114 111 108 106 104 101 99 100 97 92
179 172 176 176 178 187 187 186 197 197 192 196 203 205 197 185 197 209 205 210 216 209 206 211 213 216 196 159 167 183 185 187 188 183 180 177 175 174 168 165 166 166 162 156 154 152 151 149 147 147 147 146 145 143 141 140 139 138 136 130 127 120 115 118 117 113 112 113 110 109 114 119 121 120 117 114 113 110 108 108 105 102 99 99 98 95
170 185 172 174 181 185 183 183 197 209 201 193 204 213 201 192 202 209 205 204 213 222 221 218 215 219 134 147 165 182 187 189 190 186 179 176 174 168 163 165 168 166 162 157 154 153 151 149 148 148 148 148 148 147 144 143 141 139 135 132 131 128 124 122 121 118 115 115 115 116 121 122 120 119 117 115 113 111 110 108 105 104 102 97 95 94
98 224 173 171 172 176 182 183 195 213 209 194 206 219 211 199 205 218 222 206 209 223 221 212 203 181 84 128 172 192 190 188 187 180 175 174 169 162 161 164 165 162 160 157 153 152 151 150 150 150 150 151 151 149 147 146 143 140 138 136 136 138 136 127 121 121 121 122 122 123 124 122 120 120 117 115 114 112 111 109 106 103 100 96 91 88
183 210 179 169 171 178 184 180 187 206 212 202 203 212 217 210 201 212 233 222 212 223 225 224 204 163 128 126 183 196 183 176 173 170 174 173 163 161 164 165 164 159 156 156 154 152 152 152 152 152 152 153 153 152 150 148 146 145 144 140 136 136 134 130 130 130 129 129 128 127 126 123 122 121 118 116 114 112 112 110 106 101 96 94 90 85
192 210 185 177 182 182 182 183 189 195 199 209 207 203 210 216 206 204 222 225 215 216 224 235 218 141 138 159 178 183 169 164 165 169 178 175 161 159 164 166 165 161 157 159 157 154 154 155 154 155 155 156 155 154 152 150 148 146 143 139 136 135 135 136 139 137 134 132 129 127 125 123 123 122 119 118 115 114 112 107 104 101 97 92 87 84
204 215 195 193 196 189 185 188 191 191 192 202 210 202 203 214 215 208 210 224 222 211 220 233 207 145 146 169 177 174 166 167 167 166 170 169 161 159 162 164 165 162 161 161 158 156 157 157 158 158 157 157 156 155 154 152 151 148 142 137 136 137 138 140 141 137 134 132 130 128 127 126 125 123 121 119 117 114 110 105 102 100 98 94 89 85
212 205 201 214 204 189 205 199 187 189 196 198 206 208 202 207 215 213 210 218 217 210 218 217 197 176 166 172 178 176 172 173 171 165 163 164 164 160 159 162 162 163 164 163 160 160 160 160 160 159 158 158 157 157 156 153 151 147 141 137 139 141 142 141 139 136 135 135 133 131 130 128 126 124 122 120 117 113 108 105 102 99 96 94 91 87
219 194 200 222 200 152 320 226 185 184 196 198 202 209 206 205 211 213 214 217 213 215 227 217 205 203 189 176 178 178 180 180 173 166 160 160 161 158 158 163 163 164 166 165 163 164 163 162 161 159 159 159 159 158 156 153 150 145 141 141 143 145 144 142 139 138 138 138 136 134 133 130 126 123 120 117 114 111 108 107 103 99 95 92 89 86
227 194 192 212 200 164 21 319 182 188 197 199 200 204 206 207 212 213 214 219 220 225 241 241 224 219 203 183 181 178 179 176 166 162 160 163 166 164 164 167 167 167 168 168 167 167 165 163 161 160 160 161 161 160 156 154 152 148 146 145 145 145 144 142 141 140 139 139 137 134 131 126 122 120 118 116 113 111 109 108 104 100 96 92 88 85
218 194 183 201 206 184 164 146 204 210 211 211 207 204 203 206 211 214 214 218 219 222 233 236 226 222 213 200 188 173 164 161 159 163 167 170 173 172 170 171 173 172 172 170 168 167 165 163 161 161 163 163 162 159 157 156 154 151 149 148 145 145 144 143 142 141 140 138 134 130 127 124 123 122 120 117 114 110 107 105 102 99 95 91 86 84
208 200 176 197 216 196 176 182 204 210 218 226 224 215 209 207 208 209 212 216 215 216 223 222 215 209 198 201 189 162 154 157 161 167 172 175 178 178 175 177 178 176 172 168 167 167 165 164 164 164 164 163 161 160 159 158 155 153 151 148 146 145 144 144 143 141 139 136 133 131 130 127 125 123 120 120 118 115 110 104 100 96 92 89 84 81
199 201 177 192 217 207 192 194 200 202 214 225 225 220 217 216 214 212 211 212 211 215 220 216 215 210 187 184 183 163 161 170 172 174 178 179 181 182 182 182 181 177 172 168 168 167 165 165 166 165 163 162 160 160 161 160 156 153 150 148 147 147 145 144 144 142 140 137 136 134 132 130 129 129 129 129 125 118 111 105 100 94 89 86 82 78
193 205 197 182 200 212 193 186 201 214 217 219 198 210 219 220 219 217 214 210 208 212 220 217 216 221 205 189 186 180 182 185 180 177 177 178 181 186 189 187 181 176 173 171 169 168 166 166 166 164 162 161 160 160 161 158 154 151 148 147 147 147 146 145 145 144 142 140 138 136 134 134 134 132 129 125 118 112 110 108 102 93 86 83 79 76
190 208 216 184 195 212 183 175 214 224 208 115 77 72 248 233 227 226 224 219 208 206 214 216 216 221 215 199 200 201 197 189 179 174 175 178 182 188 189 186 180 176 175 172 170 169 167 166 166 164 161 161 161 161 158 156 154 151 149 148 148 148 148 148 147 146 145 142 139 137 136 135 132 128 126 125 121 119 117 112 105 98 92 86 81 76
186 202 226 207 199 208 190 190 216 212 125 114 107 86 95 206 217 223 228 223 211 207 214 216 219 223 216 207 210 206 188 174 166 171 177 179 182 187 187 183 180 178 175 172 171 170 167 167 166 163 161 164 167 164 159 157 154 150 147 148 149 150 151 150 149 148 146 143 139 138 138 136 134 133 133 130 127 124 120 114 106 101 97 90 83 77
187 196 221 223 207 212 211 205 207 164 134 172 196 179 180 192 199 208 224 221 209 211 216 215 218 222 214 207 202 173 156 156 161 177 184 182 183 188 186 181 179 179 174 170 170 169 166 165 164 163 165 169 169 165 162 158 152 147 147 150 151 152 152 151 150 149 147 144 142 143 142 140 140 138 135 132 130 128 124 118 112 106 100 94 86 78
190 197 210 216 211 219 231 225 217 212 213 216 200 182 185 203 204 206 225 228 210 211 216 214 215 217 210 192 170 153 152 165 180 188 188 185 184 185 183 181 181 180 174 170 168 167 165 164 164 168 171 169 164 162 161 156 150 149 150 152 153 154 153 153 152 151 149 147 147 146 145 144 144 141 138 137 135 131 126 120 117 112 102 95 89 81
199 205 209 211 207 215 238 242 228 231 237 209 160 159 170 172 164 185 226 236 206 203 210 213 213 213 202 179 166 160 165 192 216 195 183 181 180 179 177 177 178 176 173 171 169 166 165 166 169 171 170 164 160 161 158 153 151 151 152 153 155 155 155 156 155 153 151 149 148 148 147 148 148 145 143 143 139 133 128 124 120 113 102 93 88 82
206 209 210 214 214 213 225 237 238 246 236 130 137 153 161 154 153 180 220 238 190 193 203 208 212 208 192 177 172 174 188 215 244 177 168 170 173 174 174 175 177 175 172 170 169 165 164 168 171 170 166 161 160 159 155 152 151 151 153 156 156 156 157 157 155 152 151 149 149 150 150 151 150 147 147 147 142 134 129 127 120 113 108 101 96 94
199 206 210 216 219 211 213 230 240 237 94 123 152 156 147 149 176 205 209 241 349 215 202 205 208 200 187 181 183 190 194 190 68 134 154 161 166 170 174 176 176 173 168 168 169 165 163 169 173 171 166 163 160 156 152 151 152 153 156 157 157 158 158 155 153 152 151 150 151 152 152 152 151 150 150 148 143 136 133 130 121 113 110 103 96 95
188 199 210 217 225 220 212 225 233 226 137 138 148 143 147 172 205 213 176 211 307 300 202 205 205 193 187 189 193 190 154 102 115 141 153 159 162 167 173 175 173 169 166 169 171 167 164 168 171 168 165 161 157 154 153 153 155 156 158 159 159 159 156 153 153 152 151 152 153 153 153 154 153 152 150 149 144 139 135 131 125 120 117 109 94 86
179 195 205 204 216 227 223 222 231 235 177 165 155 147 172 205 300 43 118 187 305 347 186 201 200 189 187 189 184 155 111 117 138 149 155 160 163 165 169 171 172 171 168 169 171 170 169 169 168 165 162 159 156 154 154 156 157 158 159 159 158 156 154 154 154 152 152 154 154 154 156 157 156 154 152 150 147 142 138 132 126 122 119 113 97 82
182 214 219 198 198 220 224 216 229 305 160 172 169 144 128 86 51 24 4 93 125 141 162 181 187 184 183 179 164 137 123 132 145 152 157 163 166 166 166 166 168 170 170 169 170 172 173 170 165 163 162 159 156 156 157 159 159 158 159 159 157 155 155 154 153 153 154 155 155 156 160 161 160 157 153 152 149 146 146 142 132 125 120 119 116 100
202 255 274 255 238 264 273 121 61 62 134 158 126 73 87 80 58 29 9 32 88 125 142 167 176 176 177 175 162 146 139 144 152 157 161 166 168 168 167 168 169 170 169 168 169 172 172 169 167 164 160 157 156 157 159 162 160 158 159 158 157 156 155 154 155 155 155 157 158 158 160 161 159 158 156 155 152 151 152 151 146 143 135 123 116 101
167 222 293 296 287 300 290 234 116 74 138 152 109 84 96 81 67 64 29 26 52 71 109 162 170 173 174 173 167 157 153 158 160 162 165 168 169 169 170 170 170 171 169 168 169 170 169 169 169 165 158 156 158 160 161 164 162 160 159 159 158 158 157 156 157 157 157 159 159 158 159 160 159 161 161 157 156 159 159 156 154 156 155 146 134 113
160 179 240 239 223 253 269 211 204 240 192 186 189 144 134 140 104 79 57 54 69 72 67 143 165 170 171 170 170 165 158 160 166 169 169 166 166 171 174 172 171 173 172 170 170 169 169 169 167 162 157 157 159 161 162 164 163 161 160 159 159 159 158 158 159 159 160 161 160 160 162 163 163 166 164 161 163 166 164 163 161 157 151 144 141 133
132 181 250 248 238 246 251 168 148 188 204 206 209 202 184 178 164 120 78 77 88 103 117 141 162 167 168 171 172 168 159 159 166 170 169 167 170 175 177 173 173 175 173 171 172 171 170 169 165 162 160 158 160 163 164 163 164 163 161 161 161 160 160 161 162 162 162 163 162 163 166 168 168 167 164 164 167 163 161 167 165 161 167 166 158 157
186 243 250 244 255 255 243 206 174 193 194 189 203 206 179 158 170 174 142 107 109 127 139 152 161 164 169 173 172 169 162 159 165 170 169 171 176 180 179 176 176 177 174 172 172 170 168 167 165 163 162 159 161 165 164 163 165 165 163 163 163 163 163 163 163 164 165 165 166 168 170 172 172 169 167 169 168 165 172 174 161 155 181 194 181 171
219 259 259 235 258 270 244 118 357 261 226 171 144 179 181 166 165 176 172 167 171 157 150 154 159 163 169 172 174 173 164 160 166 173 174 176 180 181 179 177 178 178 174 170 168 166 165 166 165 163 161 160 162 165 164 164 166 166 165 165 165 165 165 164 164 166 167 168 171 172 172 173 174 173 173 174 171 174 186 187 178 173 183 189 178 173
232 302 305 284 284 323 51 53 24 354 319 14 42 67 195 205 205 204 202 197 189 176 163 162 165 167 168 169 173 172 165 161 167 174 178 180 181 181 181 179 179 177 171 168 166 164 164 165 164 162 161 161 163 164 165 166 167 167 168 168 167 167 168 166 166 169 170 172 175 176 174 174 176 175 175 177 175 175 182 187 189 193 197 185 172 172
Height
1464 1465 1462 1457 1454 1453 1453 1454 1453 1448 1446 1447 1451 1455 1449 1448 1448 1442 1446 1450 1452 1462 1461 1461 1478 1489 1491 1493 1494 1496 1499 1499 1502 1508 1509 1505 1502 1503 1504 1507 1510 1512 1515 1516 1517 1518 1522 1527 1529 1530 1532 1533 1537 1539 1542 1546 1547 1546 1546 1546 1545 1545 1547 1550 1553 1550 1547 1546 1547 1548 1548 1549 1549 1550 1551 1552 1552 1553 1553 1554 1554 1554 1555 1555 1555 1555
1462 1459 1452 1449 1450 1450 1452 1453 1453 1449 1445 1445 1448 1451 1448 1445 1443 1442 1447 1450 1451 1458 1458 1460 1477 1488 1490 1493 1493 1496 1498 1498 1500 1504 1505 1503 1502 1502 1504 1508 1511 1513 1516 1517 1518 1519 1521 1525 1527 1528 1531 1534 1537 1540 1544 1547 1547 1547 1547 1547 1547 1547 1548 1551 1553 1552 1548 1547 1547 1548 1549 1549 1549 1550 1550 1551 1552 1552 1553 1554 1554 1554 1554 1554 1555 1555
1456 1451 1446 1448 1450 1450 1451 1451 1451 1449 1448 1447 1445 1447 1449 1441 1441 1448 1451 1452 1452 1455 1458 1463 1476 1489 1491 1492 1495 1496 1496 1497 1499 1500 1501 1503 1502 1502 1504 1508 1511 1514 1517 1518 1519 1520 1520 1523 1526 1529 1533 1535 1536 1540 1544 1547 1547 1548 1548 1547 1548 1548 1549 1551 1553 1553 1550 1548 1549 1549 1549 1549 1549 1549 1550 1550 1551 1552 1553 1553 1554 1554 1554 1554 1554 1554
1451 1447 1444 1446 1449 1449 1449 1450 1450 1449 1451 1450 1443 1445 1445 1436 1443 1456 1455 1455 1452 1453 1461 1465 1474 1490 1498 1500 1500 1498 1496 1497 1499 1500 1501 1503 1503 1503 1506 1509 1511 1513 1516 1518 1520 1521 1521 1523 1526 1528 1533 1536 1536 1539 1542 1545 1546 1547 1548 1548 1548 1550 1551 1552 1553 1553 1551 1550 1549 1549 1549 1548 1548 1549 1550 1551 1552 1552 1553 1553 1553 1553 1553 1553 1553 1553
1444 1443 1443 1445 1447 1446 1447 1449 1449 1450 1454 1451 1443 1442 1439 1436 1445 1454 1455 1456 1455 1456 1461 1467 1483 1495 1498 1501 1499 1495 1496 1497 1499 1500 1501 1502 1503 1505 1508 1509 1511 1513 1515 1517 1520 1521 1521 1523 1526 1527 1532 1535 1536 1537 1539 1542 1545 1547 1547 1548 1549 1552 1554 1554 1554 1552 1551 1550 1549 1549 1548 1548 1549 1549 1550 1551 1552 1552 1552 1552 1552 1552 1553 1553 1553 1553
1441 1440 1442 1443 1444 1444 1446 1448 1447 1450 1454 1451 1444 1437 1434 1440 1448 1450 1454 1458 1462 1465 1461 1467 1493 1502 1494 1495 1495 1493 1496 1498 1498 1499 1500 1502 1503 1505 1507 1509 1511 1513 1515 1517 1519 1520 1520 1522 1526 1527 1530 1533 1534 1535 1537 1540 1543 1546 1548 1549 1552 1555 1556 1556 1554 1552 1551 1550 1549 1548 1548 1548 1549 1550 1551 1552 1552 1552 1552 1551 1552 1552 1553 1553 1552 1552
1436 1436 1438 1441 1442 1444 1445 1444 1444 1448 1451 1450 1444 1436 1434 1440 1445 1447 1452 1458 1462 1465 1460 1462 1481 1497 1500 1496 1491 1493 1496 1497 1498 1498 1499 1500 1501 1503 1505 1508 1510 1512 1515 1517 1518 1520 1520 1523 1525 1527 1529 1531 1532 1534 1536 1539 1543 1546 1549 1551 1553 1554 1555 1555 1553 1552 1551 1550 1549 1549 1549 1549 1550 1550 1551 1551 1552 1552 1551 1551 1552 1552 1552 1551 1551 1551
1432 1434 1436 1437 1440 1442 1442 1442 1443 1446 1448 1445 1439 1440 1440 1438 1442 1446 1451 1456 1455 1457 1463 1462 1465 1485 1503 1497 1487 1490 1494 1495 1497 1497 1497 1498 1499 1502 1504 1507 1510 1512 1514 1516 1518 1520 1522 1524 1525 1526 1528 1530 1532 1535 1537 1540 1543 1547 1550 1551 1552 1553 1553 1553 1552 1551 1550 1549 1549 1549 1550 1550 1550 1550 1550 1551 1551 1551 1551 1551 1551 1551 1551 1550 1550 1550
1429 1431 1431 1433 1438 1440 1440 1441 1442 1445 1446 1438 1435 1443 1444 1439 1443 1447 1451 1454 1451 1457 1470 1467 1461 1475 1492 1491 1487 1491 1493 1493 1493 1494 1496 1496 1497 1501 1504 1506 1509 1512 1514 1516 1518 1521 1522 1524 1524 1525 1527 1530 1533 1535 1538 1541 1544 1548 1550 1551 1551 1551 1551 1551 1550 1550 1549 1549 1549 1549 1550 1550 1550 1550 1550 1550 1551 1550 1550 1550 1550 1551 1550 1550 1550 1550
1427 1427 1429 1434 1439 1440 1440 1438 1438 1444 1443 1434 1436 1444 1444 1444 1446 1448 1451 1450 1450 1464 1473 1466 1461 1470 1482 1485 1486 1493 1495 1491 1489 1490 1491 1494 1496 1499 1503 1506 1509 1512 1514 1516 1519 1521 1523 1524 1523 1524 1526 1529 1533 1535 1538 1542 1545 1547 1548 1549 1549 1549 1549 1549 1549 1548 1548 1548 1548 1549 1549 1549 1549 1550 1550 1550 1550 1550 1550 1550 1550 1551 1550 1550 1550 1551
1424 1431 1435 1438 1439 1437 1437 1436 1437 1442 1439 1435 1442 1447 1448 1449 1448 1449 1449 1448 1459 1472 1468 1458 1456 1464 1477 1479 1478 1486 1489 1484 1485 1487 1488 1491 1494 1498 1502 1505 1509 1511 1514 1516 1519 1521 1523 1523 1523 1524 1526 1529 1533 1536 1539 1541 1543 1544 1545 1546 1546 1547 1547 1547 1547 1547 1547 1547 1548 1548 1549 1549 1549 1550 1550 1550 1550 1551 1551 1551 1551 1551 1551 1550 1551 1551
1428 1437 1437 1436 1436 1434 1435 1437 1438 1440 1438 1441 1447 1448 1453 1455 1453 1457 1455 1455 1470 1474 1461 1453 1453 1461 1472 1475 1474 1478 1481 1480 1481 1483 1486 1489 1492 1497 1502 1504 1508 1511 1513 1516 1519 1520 1522 1523 1524 1525 1527 1530 1533 1536 1539 1540 1541 1543 1544 1544 1544 1545 1545 1545 1546 1546 1546 1547 1547 1547 1548 1548 1549 1550 1550 1550 1551 1551 1551 1552 1552 1552 1551 1551 1551 1551
1429 1434 1433 1435 1434 1431 1434 1436 1440 1441 1439 1445 1447 1446 1457 1464 1467 1473 1468 1464 1468 1463 1453 1449 1454 1463 1463 1461 1467 1472 1474 1476 1475 1478 1485 1488 1490 1497 1501 1504 1508 1511 1513 1516 1518 1520 1521 1523 1524 1525 1527 1530 1532 1536 1538 1539 1540 1541 1542 1543 1543 1544 1543 1544 1545 1545 1546 1546 1547 1547 1547 1548 1549 1550 1550 1550 1550 1551 1551 1552 1552 1552 1552 1551 1552 1552
1433 1434 1432 1434 1432 1430 1431 1432 1440 1443 1438 1444 1444 1443 1455 1464 1476 1484 1473 1468 1469 1460 1450 1445 1454 1466 1459 1450 1455 1460 1465 1468 1469 1476 1483 1487 1492 1497 1500 1504 1509 1511 1514 1516 1518 1520 1521 1522 1524 1525 1527 1529 1531 1535 1537 1538 1539 1540 1541 1542 1542 1543 1543 1543 1544 1545 1546 1545 1546 1547 1547 1547 1548 1548 1549 1549 1549 1550 1550 1551 1551 1551 1552 1552 1552 1552
1439 1440 1431 1429 1430 1429 1427 1427 1435 1437 1437 1442 1438 1438 1446 1449 1464 1477 1468 1467 1470 1462 1453 1448 1455 1465 1461 1454 1451 1451 1458 1463 1465 1472 1479 1486 1493 1497 1500 1505 1509 1512 1514 1516 1518 1520 1521 1522 1523 1525 1527 1529 1531 1534 1536 1537 1538 1539 1541 1542 1543 1543 1543 1543 1544 1545 1546 1545 1545 1546 1546 1547 1547 1548 1548 1548 1548 1549 1549 1550 1550 1551 1552 1552 1552 1552
1432 1433 1424 1424 1427 1428 1429 1428 1429 1432 1438 1441 1436 1437 1441 1436 1445 1460 1459 1455 1458 1460 1458 1455 1456 1459 1460 1459 1452 1451 1456 1458 1463 1472 1477 1485 1492 1496 1501 1505 1509 1512 1513 1515 1517 1519 1520 1521 1523 1525 1527 1529 1532 1534 1535 1536 1538 1539 1541 1542 1543 1543 1543 1544 1544 1545 1545 1545 1545 1546 1546 1546 1547 1547 1547 1548 1548 1549 1549 1550 1550 1551 1552 1552 1552 1552
1427 1426 1419 1424 1429 1428 1431 1429 1426 1430 1437 1440 1440 1438 1434 1429 1433 1450 1458 1454 1456 1464 1461 1455 1458 1462 1466 1466 1457 1454 1456 1457 1464 1472 1478 1484 1490 1495 1500 1504 1508 1510 1512 1515 1516 1517 1520 1521 1523 1526 1527 1530 1532 1533 1535 1536 1537 1539 1541 1542 1543 1543 1544 1544 1545 1545 1545 1545 1545 1545 1546 1546 1546 1547 1547 1548 1548 1548 1549 1550 1551 1551 1552 1552 1553 1553
1417 1423 1422 1426 1431 1429 1430 1431 1428 1428 1431 1436 1441 1435 1429 1431 1431 1441 1458 1464 1467 1469 1460 1455 1460 1462 1469 1472 1463 1457 1458 1459 1464 1471 1477 1484 1490 1494 1498 1502 1507 1509 1511 1513 1514 1517 1519 1521 1524 1526 1528 1530 1532 1533 1535 1536 1538 1540 1542 1543 1544 1544 1544 1544 1545 1545 1545 1545 1545 1545 1545 1546 1547 1547 1548 1548 1549 1549 1550 1551 1551 1552 1553 1553 1553 1553
1408 1423 1429 1425 1427 1429 1430 1433 1433 1430 1428 1429 1432 1429 1430 1442 1443 1443 1456 1467 1471 1470 1463 1460 1461 1456 1457 1461 1461 1460 1459 1459 1463 1469 1476 1482 1488 1492 1496 1501 1505 1508 1510 1512 1514 1517 1519 1521 1524 1526 1528 1531 1532 1534 1534 1536 1539 1541 1543 1544 1545 1544 1544 1544 1544 1544 1545 1545 1546 1546 1546 1547 1547 1548 1548 1549 1549 1550 1551 1551 1552 1553 1553 1554 1554 1554
1404 1421 1434 1427 1424 1429 1431 1432 1434 1433 1430 1426 1427 1426 1427 1435 1440 1439 1444 1454 1463 1467 1466 1465 1464 1456 1445 1445 1453 1457 1455 1457 1462 1468 1474 1480 1486 1490 1494 1499 1503 1506 1508 1510 1513 1516 1518 1522 1524 1526 1529 1531 1533 1534 1534 1537 1539 1541 1543 1544 1545 1545 1544 1544 1544 1544 1545 1546 1546 1547 1547 1547 1548 1548 1549 1550 1551 1551 1552 1552 1553 1554 1554 1554 1555 1555
1405 1419 1433 1429 1424 1429 1430 1428 1429 1430 1431 1431 1431 1430 1428 1432 1435 1436 1439 1441 1447 1459 1465 1468 1470 1456 1437 1436 1446 1450 1451 1455 1459 1465 1472 1478 1485 1489 1493 1498 1501 1504 1507 1509 1512 1515 1518 1521 1524 1526 1529 1531 1533 1534 1535 1538 1539 1541 1543 1544 1545 1544 1544 1544 1544 1545 1545 1546 1547 1547 1547 1548 1548 1549 1550 1551 1552 1552 1553 1554 1554 1555 1555 1555 1555 1555
1410 1416 1426 1429 1427 1428 1426 1423 1423 1425 1426 1430 1433 1430 1429 1433 1438 1446 1451 1441 1436 1445 1451 1459 1465 1451 1432 1433 1442 1445 1448 1453 1456 1461 1468 1475 1483 1488 1492 1496 1500 1503 1506 1508 1511 1515 1518 1520 1523 1526 1529 1531 1533 1535 1536 1538 1540 1542 1543 1544 1545 1545 1545 1545 1545 1545 1546 1546 1547 1547 1547 1549 1549 1550 1551 1552 1553 1553 1554 1555 1555 1556 1556 1556 1556 1556
1411 1412 1421 1427 1424 1422 1422 1420 1423 1424 1421 1426 1432 1427 1425 1430 1434 1445 1453 1444 1438 1439 1436 1443 1456 1451 1436 1433 1440 1444 1447 1450 1455 1461 1466 1473 1481 1486 1491 1496 1500 1503 1505 1508 1511 1514 1517 1520 1523 1526 1529 1531 1533 1534 1536 1538 1540 1542 1543 1544 1545 1546 1546 1546 1545 1546 1547 1547 1548 1548 1548 1550 1550 1551 1552 1553 1554 1555 1555 1556 1556 1557 1557 1557 1557 1557
1416 1415 1419 1424 1419 1418 1420 1419 1421 1422 1420 1426 1430 1424 1423 1427 1429 1434 1437 1435 1441 1442 1436 1443 1457 1455 1443 1437 1439 1443 1445 1448 1454 1460 1467 1474 1480 1486 1491 1496 1499 1502 1505 1508 1511 1513 1516 1519 1522 1525 1528 1530 1533 1534 1536 1538 1540 1541 1543 1543 1544 1545 1546 1546 1546 1546 1547 1547 1548 1548 1550 1551 1551 1553 1553 1554 1555 1556 1556 1557 1557 1558 1558 1558 1558 1558
1421 1417 1416 1424 1429 1429 1427 1426 1427 1425 1422 1424 1426 1425 1425 1424 1427 1433 1431 1432 1443 1444 1437 1444 1454 1452 1445 1442 1442 1441 1442 1448 1454 1461 1470 1475 1480 1486 1491 1495 1498 1501 1504 1507 1510 1512 1515 1518 1521 1524 1527 1530 1532 1534 1536 1538 1539 1541 1542 1543 1542 1543 1545 1546 1547 1547 1547 1548 1549 1549 1550 1551 1552 1554 1554 1555 1556 1557 1557 1558 1558 1559 1559 1559 1559 1559
1420 1414 1412 1423 1434 1436 1435 1435 1431 1425 1423 1423 1422 1424 1426 1425 1427 1434 1436 1441 1447 1444 1439 1441 1446 1449 1448 1446 1446 1444 1444 1451 1456 1463 1470 1475 1480 1486 1490 1494 1497 1500 1503 1506 1509 1512 1514 1518 1520 1523 1526 1529 1532 1534 1536 1537 1539 1540 1541 1541 1541 1542 1544 1546 1546 1546 1547 1549 1549 1550 1551 1552 1554 1555 1556 1557 1557 1558 1558 1559 1559 1560 1560 1560 1560 1559
1417 1411 1409 1415 1421 1422 1425 1427 1422 1419 1425 1429 1426 1424 1426 1426 1426 1429 1438 1443 1441 1441 1444 1439 1438 1450 1453 1447 1447 1448 1449 1454 1458 1463 1469 1474 1479 1484 1489 1494 1496 1499 1503 1505 1508 1511 1514 1517 1520 1523 1526 1528 1531 1533 1535 1537 1539 1540 1539 1539 1540 1542 1544 1545 1545 1547 1548 1549 1550 1552 1552 1553 1555 1556 1557 1557 1558 1559 1559 1560 1560 1560 1560 1560 1560 1560
1418 1416 1413 1412 1411 1411 1413 1414 1413 1418 1424 1428 1428 1426 1425 1426 1426 1429 1438 1439 1434 1442 1449 1437 1433 1448 1452 1446 1447 1449 1451 1456 1459 1463 1469 1473 1478 1483 1488 1493 1496 1499 1502 1504 1507 1510 1512 1516 1519 1521 1524 1527 1530 1533 1535 1536 1538 1538 1538 1538 1540 1542 1543 1544 1546 1547 1549 1550 1551 1552 1553 1554 1555 1556 1557 1558 1559 1560 1560 1561 1561 1561 1561 1561 1560 1560
1419 1420 1418 1415 1414 1414 1413 1409 1408 1414 1419 1421 1425 1427 1426 1427 1428 1431 1436 1434 1433 1442 1445 1434 1433 1441 1442 1442 1447 1448 1450 1455 1458 1464 1471 1475 1479 1483 1487 1492 1495 1498 1501 1504 1506 1509 1511 1514 1517 1520 1523 1526 1529 1532 1533 1535 1537 1537 1538 1538 1540 1542 1543 1545 1546 1548 1550 1551 1552 1553 1554 1555 1556 1557 1558 1559 1560 1561 1561 1562 1562 1562 1562 1561 1560 1560
1420 1421 1419 1418 1419 1419 1419 1415 1411 1414 1418 1420 1422 1425 1426 1428 1429 1431 1434 1433 1434 1439 1437 1433 1435 1436 1435 1438 1442 1445 1450 1454 1459 1466 1472 1475 1478 1482 1486 1490 1494 1497 1500 1502 1505 1507 1510 1513 1515 1518 1522 1525 1528 1530 1532 1534 1535 1537 1538 1539 1540 1542 1544 1545 1547 1549 1551 1552 1553 1554 1555 1556 1557 1558 1559 1560 1561 1562 1562 1562 1562 1562 1562 1561 1561 1560
1423 1422 1418 1420 1424 1425 1424 1424 1422 1420 1421 1422 1422 1421 1424 1428 1430 1432 1434 1435 1437 1440 1438 1436 1440 1440 1435 1434 1436 1442 1450 1455 1459 1466 1470 1473 1477 1480 1483 1487 1490 1494 1497 1500 1503 1506 1509 1512 1515 1518 1521 1524 1527 1529 1531 1533 1534 1536 1538 1539 1541 1542 1544 1546 1547 1550 1552 1553 1554 1555 1555 1557 1558 1559 1560 1561 1561 1562 1563 1563 1563 1563 1563 1562 1561 1561
1423 1423 1420 1423 1430 1428 1425 1429 1430 1426 1427 1430 1428 1424 1424 1427 1430 1432 1434 1434 1437 1441 1441 1441 1444 1442 1436 1435 1436 1440 1448 1454 1458 1463 1467 1472 1475 1477 1480 1483 1486 1490 1494 1497 1501 1504 1507 1510 1513 1517 1520 1523 1525 1528 1530 1532 1533 1536 1538 1539 1541 1542 1544 1546 1548 1550 1552 1553 1554 1555 1556 1557 1558 1560 1561 1561 1562 1563 1563 1564 1564 1564 1564 1563 1562 1562
1422 1423 1423 1428 1434 1429 1422 1426 1429 1431 1438 1439 1432 1426 1425 1425 1427 1429 1430 1432 1434 1437 1441 1442 1441 1437 1435 1437 1440 1442 1448 1453 1455 1459 1463 1468 1473 1477 1479 1482 1485 1488 1491 1495 1498 1502 1505 1509 1512 1516 1518 1521 1524 1527 1530 1532 1533 1535 1536 1538 1540 1542 1544 1546 1548 1550 1552 1553 1554 1554 1556 1557 1559 1560 1561 1561 1562 1563 1563 1564 1565 1565 1564 1563 1563 1563
1421 1422 1421 1424 1432 1431 1423 1424 1431 1438 1444 1439 1427 1423 1424 1424 1426 1428 1429 1430 1431 1433 1434 1436 1435 1433 1434 1438 1441 1443 1446 1449 1452 1456 1460 1465 1471 1476 1478 1481 1484 1487 1490 1493 1497 1500 1503 1507 1511 1514 1517 1520 1523 1526 1529 1531 1532 1533 1534 1537 1539 1541 1544 1546 1548 1550 1551 1552 1553 1554 1556 1558 1559 1560 1561 1562 1563 1563 1564 1565 1566 1566 1565 1564 1564 1564
1423 1424 1420 1419 1427 1427 1421 1430 1444 1447 1441 1433 1426 1425 1426 1425 1425 1427 1428 1427 1428 1430 1431 1432 1433 1433 1433 1436 1439 1442 1445 1447 1451 1456 1460 1463 1468 1472 1475 1478 1481 1485 1488 1491 1494 1498 1501 1505 1508 1511 1515 1518 1522 1524 1528 1529 1530 1531 1533 1536 1539 1541 1544 1546 1548 1549 1550 1552 1553 1554 1556 1558 1559 1561 1562 1563 1564 1564 1565 1566 1566 1566 1566 1565 1565 1565
1423 1426 1423 1419 1422 1423 1424 1436 1448 1443 1433 1430 1430 1429 1429 1429 1429 1431 1433 1429 1426 1429 1431 1432 1432 1431 1431 1434 1436 1440 1444 1448 1452 1456 1459 1462 1465 1468 1472 1475 1478 1482 1485 1488 1492 1496 1499 1503 1506 1509 1513 1516 1519 1522 1525 1526 1527 1529 1532 1535 1538 1541 1543 1545 1547 1549 1550 1551 1553 1555 1557 1559 1560 1562 1563 1564 1564 1565 1565 1566 1566 1566 1566 1566 1566 1565
1420 1425 1425 1422 1421 1422 1425 1431 1433 1433 1435 1435 1432 1428 1428 1429 1428 1432 1436 1431 1425 1427 1429 1430 1431 1431 1431 1433 1436 1440 1445 1449 1452 1455 1457 1460 1463 1466 1470 1473 1478 1482 1484 1487 1492 1495 1498 1502 1505 1508 1511 1514 1517 1520 1523 1524 1525 1527 1531 1535 1538 1540 1543 1545 1547 1549 1550 1552 1554 1556 1557 1559 1561 1562 1563 1564 1565 1565 1566 1566 1566 1567 1567 1567 1566 1566
1417 1420 1423 1426 1425 1423 1427 1428 1428 1435 1439 1432 1425 1423 1424 1426 1424 1426 1433 1431 1424 1424 1426 1427 1429 1430 1430 1434 1438 1442 1447 1450 1451 1451 1453 1457 1461 1465 1469 1473 1477 1481 1484 1488 1491 1494 1498 1501 1504 1507 1510 1512 1516 1519 1521 1522 1523 1526 1530 1534 1537 1540 1542 1545 1547 1549 1550 1552 1554 1555 1557 1559 1561 1562 1564 1564 1565 1565 1566 1566 1567 1567 1567 1567 1566 1566
1417 1417 1418 1424 1427 1427 1431 1433 1430 1431 1428 1419 1417 1420 1423 1426 1424 1426 1436 1433 1421 1419 1424 1424 1425 1427 1428 1434 1439 1442 1445 1448 1446 1443 1448 1454 1458 1463 1468 1472 1476 1480 1484 1487 1490 1493 1496 1500 1503 1506 1509 1513 1516 1518 1520 1521 1522 1526 1530 1534 1537 1539 1542 1544 1546 1548 1550 1551 1553 1555 1558 1559 1561 1562 1564 1564 1565 1565 1566 1566 1567 1567 1567 1567 1567 1567
1421 1421 1421 1425 1427 1427 1431 1433 1427 1423 1419 1416 1418 1422 1423 1425 1425 1432 1443 1435 1417 1415 1421 1422 1423 1426 1428 1434 1439 1440 1441 1442 1439 1438 1444 1451 1457 1462 1467 1470 1474 1478 1482 1486 1489 1491 1494 1497 1501 1505 1509 1512 1514 1516 1518 1520 1523 1526 1530 1533 1536 1539 1541 1544 1546 1547 1549 1551 1553 1556 1558 1559 1561 1562 1563 1564 1564 1565 1566 1566 1566 1567 1567 1568 1568 1567
1424 1424 1423 1425 1425 1424 1429 1432 1427 1421 1419 1417 1418 1420 1422 1426 1430 1436 1440 1431 1420 1419 1421 1421 1423 1426 1429 1434 1437 1437 1438 1440 1439 1440 1444 1450 1456 1461 1466 1470 1474 1478 1481 1485 1488 1491 1494 1497 1499 1503 1508 1510 1512 1514 1517 1520 1523 1527 1530 1533 1536 1538 1540 1543 1545 1547 1549 1551 1553 1556 1558 1559 1561 1561 1563 1564 1564 1565 1566 1566 1566 1567 1567 1567 1567 1567
1426 1427 1425 1425 1424 1420 1422 1428 1427 1423 1420 1418 1419 1421 1423 1428 1432 1432 1429 1427 1425 1423 1422 1422 1424 1426 1430 1434 1435 1436 1438 1440 1442 1444 1447 1451 1455 1459 1464 1469 1474 1478 1481 1484 1487 1491 1493 1496 1499 1503 1506 1508 1511 1513 1517 1520 1523 1526 1530 1533 1535 1537 1540 1542 1544 1546 1548 1551 1554 1556 1557 1559 1560 1561 1562 1563 1564 1564 1565 1565 1566 1566 1567 1567 1567 1567
1422 1426 1424 1423 1422 1420 1421 1425 1428 1428 1423 1419 1420 1423 1424 1426 1428 1426 1425 1426 1426 1424 1424 1425 1425 1426 1431 1434 1436 1438 1439 1441 1444 1446 1448 1452 1455 1459 1463 1467 1472 1476 1479 1483 1487 1490 1491 1494 1498 1502 1505 1507 1511 1513 1516 1519 1523 1526 1529 1532 1534 1537 1539 1541 1543 1546 1548 1551 1554 1555 1557 1558 1559 1560 1561 1562 1563 1564 1565 1565 1566 1566 1566 1567 1567 1567
1419 1422 1420 1416 1415 1418 1422 1425 1426 1425 1422 1420 1422 1424 1425 1425 1426 1426 1426 1426 1426 1426 1426 1427 1427 1430 1432 1434 1437 1440 1441 1442 1445 1447 1449 1453 1456 1459 1463 1467 1471 1475 1478 1482 1486 1489 1490 1493 1497 1501 1504 1507 1510 1513 1516 1519 1522 1525 1529 1531 1533 1536 1538 1540 1543 1546 1548 1551 1553 1554 1556 1557 1558 1560 1561 1562 1563 1564 1565 1565 1566 1566 1567 1567 1568 1568
1421 1421 1420 1417 1414 1416 1420 1422 1422 1422 1422 1424 1425 1425 1426 1427 1427 1428 1428 1426 1427 1428 1427 1428 1430 1432 1434 1436 1438 1440 1441 1443 1445 1447 1450 1453 1457 1460 1463 1466 1470 1474 1477 1481 1485 1487 1489 1492 1495 1499 1503 1506 1509 1512 1516 1519 1522 1525 1528 1530 1532 1535 1537 1540 1543 1545 1548 1550 1552 1554 1556 1557 1559 1560 1561 1562 1563 1564 1565 1565 1566 1567 1567 1567 1568 1568
1419 1419 1421 1420 1419 1419 1419 1419 1419 1420 1422 1425 1426 1426 1427 1428 1428 1429 1429 1428 1429 1429 1429 1430 1432 1433 1435 1437 1438 1440 1442 1444 1445 1448 1450 1453 1457 1461 1464 1467 1470 1474 1477 1479 1482 1485 1489 1491 1494 1498 1502 1506 1509 1513 1516 1519 1521 1524 1527 1529 1532 1534 1537 1539 1542 1544 1547 1550 1552 1554 1556 1557 1559 1560 1561 1562 1563 1564 1565 1565 1566 1567 1567 1567 1568 1568
1417 1419 1420 1419 1420 1422 1422 1418 1418 1421 1422 1424 1426 1426 1427 1428 1429 1429 1430 1430 1430 1431 1431 1432 1433 1434 1436 1437 1439 1441 1442 1444 1446 1448 1450 1453 1457 1461 1464 1467 1470 1473 1476 1477 1478 1482 1486 1490 1493 1497 1501 1504 1509 1512 1515 1518 1521 1524 1526 1528 1531 1534 1536 1539 1541 1544 1547 1549 1551 1554 1556 1557 1558 1559 1560 1561 1563 1564 1565 1565 1566 1566 1567 1567 1567 1567
1419 1420 1420 1418 1418 1420 1420 1418 1419 1422 1423 1424 1425 1426 1426 1428 1429 1430 1430 1431 1431 1432 1433 1433 1434 1435 1436 1437 1440 1441 1442 1444 1446 1448 1450 1454 1458 1461 1464 1467 1470 1474 1476 1477 1477 1480 1484 1488 1492 1496 1499 1503 1508 1512 1515 1518 1520 1523 1526 1528 1531 1534 1536 1538 1541 1544 1546 1549 1551 1553 1555 1557 1558 1559 1560 1561 1562 1563 1564 1565 1565 1566 1565 1565 1565 1566
1423 1421 1418 1417 1417 1416 1416 1417 1420 1422 1423 1424 1425 1425 1426 1427 1429 1430 1430 1431 1432 1432 1433 1434 1435 1436 1437 1438 1440 1441 1442 1444 1446 1448 1451 1455 1458 1461 1464 1466 1470 1473 1475 1476 1478 1480 1483 1487 1490 1494 1498 1502 1506 1510 1513 1516 1520 1522 1525 1528 1531 1533 1535 1538 1541 1544 1546 1548 1551 1553 1555 1556 1557 1558 1559 1560 1561 1563 1563 1563 1564 1564 1563 1563 1563 1563
1421 1418 1415 1416 1419 1418 1418 1421 1423 1423 1424 1426 1426 1426 1427 1428 1429 1430 1430 1431 1432 1433 1434 1435 1436 1437 1438 1439 1440 1442 1442 1444 1446 1448 1452 1455 1457 1461 1463 1466 1470 1473 1474 1476 1478 1481 1484 1487 1490 1493 1498 1502 1506 1509 1512 1515 1519 1522 1524 1528 1530 1532 1535 1537 1540 1543 1546 1548 1550 1552 1553 1555 1555 1557 1558 1559 1560 1561 1561 1561 1562 1562 1561 1562 1562 1562
1418 1419 1417 1418 1422 1423 1422 1423 1424 1425 1427 1429 1427 1427 1428 1429 1429 1430 1430 1431 1432 1433 1434 1435 1436 1437 1439 1440 1441 1442 1442 1443 1446 1448 1451 1454 1457 1461 1463 1466 1469 1471 1473 1475 1478 1480 1484 1487 1489 1493 1497 1501 1505 1508 1511 1515 1518 1521 1524 1527 1529 1532 1534 1537 1540 1543 1545 1547 1549 1550 1552 1554 1555 1556 1557 1558 1559 1560 1560 1560 1561 1561 1561 1561 1562 1562